K0UND-1 Weather Reports


Display with metric or nautical units.
time (UTC)temp
F
wind
direction
speed
MPH
gust
MPH
rain 1hr
in
rain 24hr
in
rain mn
in
humidity
%
barometer
mb
20260507100020 25 0 0.0 0.0 0.00 0.00 0.00 74 1010.5
20260507090009 25 210 5.0 0.0 0.00 0.00 0.00 80 1010.8
20260507080006 28 140 5.0 0.0 0.00 0.00 0.00 74 1010.8
20260507070011 30 160 3.0 0.0 0.00 0.00 0.00 69 1011.2
20260507060006 30 160 5.0 0.0 0.00 0.00 0.00 64 1011.5
20260507050010 27 200 6.0 0.0 0.00 0.00 0.00 74 1011.9
20260507040004 32 150 7.0 0.0 0.00 0.00 0.00 64 1012.5
20260507030004 36 150 6.0 0.0 0.00 0.00 0.00 60 1012.9
20260507020009 43 0 0.0 0.0 0.00 0.00 0.00 49 1012.9
20260507010020 45 0 0.0 0.0 0.00 0.00 0.00 42 1013.2
20260507000016 45 320 8.0 0.0 0.00 0.00 0.00 42 1013.5
20260506230011 46 310 13.0 0.0 0.00 0.00 0.00 39 1013.5
20260506220008 46 290 14.0 0.0 0.00 0.00 0.00 37 1013.9
20260506210015 45 300 13.0 0.0 0.00 0.00 0.00 36 1014.6
20260506200010 45 290 14.0 0.0 0.00 0.00 0.00 39 1014.9
20260506190005 46 310 15.0 0.0 0.00 0.00 0.00 37 1015.2
20260506180010 43 290 14.0 0.0 0.00 0.00 0.00 42 1015.9
20260506170005 41 290 11.0 0.0 0.00 0.00 0.00 48 1016.6
20260506160003 39 340 6.0 0.0 0.00 0.00 0.00 52 1016.9
20260506150006 37 310 8.0 0.0 0.00 0.00 0.00 60 1017.3
20260506140014 36 330 9.0 0.0 0.00 0.00 0.00 69 1017.3
20260506130010 34 320 11.0 0.0 0.00 0.00 0.00 69 1016.9
20260506120014 30 290 6.0 0.0 0.00 0.00 0.00 69 1016.6
20260506110004 30 290 6.0 0.0 0.00 0.00 0.00 69 1016.3